Regional Weather Roundup
Issued by NWS

Home | Current Version | Previous Version | Graphics & Text | Print | Product List | Glossary On
Versions: 1 2 3 4 5 6 7 8 9 10 11 12 13 14 15 16 17 18 19 20 21 22 23 24 25 26 27 28
000
ASUS45 KBOI 211410
RWRID

IDAHO REGIONAL WEATHER ROUNDUP
NATIONAL WEATHER SERVICE BOISE ID
800 AM MDT THU SEP 21 2017

NOTE: "FAIR" INDICATES FEW OR NO CLOUDS BELOW 12000 FEET
WITH NO SIGNIFICANT WEATHER AND/OR OBSTRUCTIONS TO VISIBILITY

IDZ012-014-211500-
SOUTHWEST IDAHO


CITY           SKY/WX    TMP DP  RH WIND       PRES   REMARKS
BOISE          CLOUDY    47  45  93 CALM      29.82R
CALDWELL       CLOUDY    45  41  86 W7        29.83R
MOUNTAIN HOME  CLOUDY    47  47 100 W8        29.81R
$$

IDZ016-017-211500-
SOUTHCENTRAL IDAHO


CITY           SKY/WX    TMP DP  RH WIND       PRES   REMARKS
BURLEY         LGT RAIN  41  39  93 SW9       29.80R
JEROME         CLOUDY    42  42 100 SW8       29.82R
TWIN FALLS     CLOUDY    40  39  97 S7        29.82R
$$

IDZ019>023-211500-
SOUTHEAST IDAHO


CITY           SKY/WX    TMP DP  RH WIND       PRES   REMARKS
IDAHO FALLS    LGT RAIN  40  39  97 S7        29.80R
POCATELLO      LGT RAIN  40  38  93 S8        29.81R WCI  34
REXBURG        LGT RAIN  39  38  96 S6        29.81R WCI  35
$$

IDZ006-010-011-018-031-032-211500-
CENTRAL IDAHO MOUNTAINS


CITY           SKY/WX    TMP DP  RH WIND       PRES   REMARKS
MCCALL         CLOUDY    37  35  92 CALM      29.80R
HAILEY         RAIN      39  39 100 SE6       29.82R WCI  35
STANLEY          N/A     34  33  96 CALM      29.80R
SALMON         CLOUDY    37  36  96 CALM      29.83R
CHALLIS        CLOUDY    38  33  82 CALM      29.79R
$$

IDZ002-004-006-007-026-211500-
NORTHERN IDAHO


CITY           SKY/WX    TMP DP  RH WIND       PRES   REMARKS
LEWISTON       CLOUDY    45  42  89 S3        29.86R
LOWELL           N/A     45  43  93 CALM      29.88R
COEUR D`ALENE  CLOUDY    44  41  89 S3        29.84R
MULLAN PASS    CLOUDY    29  28  96 VRB3      29.79R
$$




USA.gov is the U.S. government's official web portal to all federal, state and local government web resources and services.